Regional Weather Roundup
Issued by NWS

Home | Current Version | Previous Version | Graphics & Text | Print | Product List | Glossary On
Versions: 1 2 3 4 5 6 7 8 9 10 11 12 13 14 15 16 17 18 19 20 21 22 23 24 25 26 27 28 29 30 31 32 33 34 35 36 37 38 39 40 41 42 43 44 45 46 47 48 49 50
000
ASUS43 KIND 212159
RWRIN

WEATHER ROUNDUP FOR INDIANA
NATIONAL WEATHER SERVICE INDIANAPOLIS IN
500 PM EST TUE NOV 21 2017

NOTE: "FAIR" INDICATES FEW OR NO CLOUDS BELOW 12,000 FEET WITH NO
SIGNIFICANT WEATHER AND/OR OBSTRUCTIONS TO VISIBILITY.

* - STATION DOES NOT REPORT WEATHER SUCH AS PRECIPITATION OR FOG.

+ - STATION NOT QUALITY CONTROLLED BY THE NATIONAL WEATHER SERVICE.
    USE DATA WITH CAUTION...ESPECIALLY DEWPOINT AND RELATIVE
    HUMIDITY OBSERVATIONS.

INZ001>003-010>013-019-020-212300-
NORTHWEST INDIANA

CITY           SKY/WX    TMP DP  RH WIND       PRES   REMARKS
GARY /AIRPORT/ PTCLDY    39  21  48 W16       29.97  WCI  30
KNOX *+        CLOUDY    34  32  93 W13       29.96R WCI  25
MICHIGAN CITY+ CLOUDY    36  28  75 N14G26    29.97R WCI  27
MONTICELLO +   LGT RAIN  36  31  82 W15       29.98R WCI  27
RENSSELAER +   CLOUDY    34  32  93 W9        30.00R WCI  26

$$

LMZ046-743>745-212300-
SOUTHERN LAKE MICHIGAN

STATION/POSITION TIME  TEMP    WIND        PRES    WAVE
                       AIR SEA DIR/SP/G            HT
                 (UTC) (F)     (DEG/KT/KT) (MB)    (FT)
BURNS HARBOR     2140   39     340/ 23/ 27 1014.9R
MICHIGAN CITY    2130   39     320/ 28/ 30   N/A

$$

INZ004-005-014>016-021>024-212300-
NORTH CENTRAL INDIANA

CITY           SKY/WX    TMP DP  RH WIND       PRES   REMARKS
ELKHART        CLOUDY    36  34  93 W9        29.92R WCI  29
GOSHEN         LGT RAIN  36  32  85 W12       29.93R FOG     WCI  28
PERU/GRISSOM   LGT RAIN  40  37  88 NW8       29.94R WCI  34
SOUTH BEND     CLOUDY    35  35 100 W9        29.95R WCI  28
WARSAW +       LGT RAIN  36  34  93 W12       29.93R WCI  27

$$

INZ006>009-017-018-025>027-212300-
NORTHEAST INDIANA

CITY           SKY/WX    TMP DP  RH WIND       PRES   REMARKS
AUBURN +       DRIZZLE   39  36  87 W9G18     29.92R WCI  33
FORT WAYNE     LGT RAIN  44  37  76 W13       29.94R
KENDALLVILLE + RAIN      38  35  86 W12       29.90R WCI  31

$$

INZ028-029-035-036-043>045-051>053-212300-
WEST CENTRAL INDIANA

CITY           SKY/WX    TMP DP  RH WIND       PRES   REMARKS
CRAWFORDSVL +  CLOUDY    43  31  64 NW15        N/A
GREENCASTLE +  CLOUDY    50  34  53 W6        29.98R
LAFAYETTE      LGT RAIN  36  33  89 W14       30.00R FOG     WCI  27
TERRE HAUTE    CLOUDY    51  34  52 NW8       29.99R

$$

INZ030>032-037>040-046>048-054>057-064-065-212300-
CENTRAL INDIANA

CITY           SKY/WX    TMP DP  RH WIND       PRES   REMARKS
COLUMBUS       CLOUDY    50  30  46 W12       29.95R
FRANKFORT +    CLOUDY    46  35  64 W17       29.99R
INDIANAPOLIS   CLOUDY    49  34  56 W13       29.96R
-EAGLE CREEK   CLOUDY    50  35  56 W13       29.95R
KOKOMO +       CLOUDY    43  35  73 NW12G18   29.97R
MT COMFORT *+  CLOUDY    48  37  66 W10       29.95R
SHELBYVILLE    CLOUDY    51  33  50 W12       29.94R

$$

INZ033-034-041-042-049-050-058-059-212300-
EAST CENTRAL INDIANA

CITY           SKY/WX    TMP DP  RH WIND       PRES   REMARKS
MUNCIE         CLOUDY    50  34  54 W13       29.93R
RICHMOND +     PTCLDY    48  34  57 W9        29.93S

$$

INZ060-061-067>069-081>083-085>088-212300-
SOUTHWEST INDIANA

CITY           SKY/WX    TMP DP  RH WIND       PRES   REMARKS
EVANSVILLE     MOCLDY    54  36  50 SW9       29.99R
HUNTINGBURG +  PTCLDY    54  36  50 SW8       29.98R

$$

INZ062-063-066-070>080-084-089>092-212300-
SOUTH CENTRAL AND SOUTHEAST INDIANA

CITY           SKY/WX    TMP DP  RH WIND       PRES   REMARKS
BLOOMINGTON    PTCLDY    52  33  48 W8        29.97R
MADISON *+     PTCLDY    54  32  43 SW5       29.97S
SEYMOUR +      CLOUDY    54  36  50 SW10      29.96R

$$





USA.gov is the U.S. government's official web portal to all federal, state and local government web resources and services.